STARLINK-1573, 46061

Orbit data source: Space-Track

STARLINK-1573, 46061 is a payload satellite owned by SpaceX/Seattle (US) in LEO that was launched on Fri, 07 Aug 2020 UTC via an FALCON 9 launch vehicle from the Air Force Eastern Test Range (AFETR). Payload-class satellites include a variety of spacecraft equipped with specific instruments for various scientific and technological missions. These include communications satellites like Starlink; space stations such as the ISS; scientific satellites like the Hubble; Earth observation satellites from companies like Planet Labs, Umbra, and HawkEye 360; GPS; miniature CubeSats for education and research; and military/defense satellites.

Loading next visibility...
Identifier
46061, 2020-055AL
Orbit
LEO
Country
Flag of USUS
Related business
Manufacturer
SpaceX/Seattle
Mission
Operational Commercial Communications
Bus & Motor
STARLINK, Unknown motor
Mass
260 kg wet, ~248 kg dry
Launch date (UTC)
2020-08-07 (5 years ago)
Launch vehicle
FALCON 9
Launch site
Air Force Eastern Test Range (AFETR)
Object type
Payload
Rocket body
Debris
Shape & HBR
Box + 1 Pan, 10.1 m
Radar Cross Section
13.562 m², Large (>1 m²)

Expand to show TLE details & history
Last TLE update: 18 hours ago

TLE from 18 hours ago
0 STARLINK-1573
1 46061U 20055AL  25291.00288883  .00001532  00000-0  12172-3 0  9992
2 46061  53.0561  37.2026 0001143  89.0060 271.1060 15.06394808287526
Epoch: 2025-10-18T00:04Z
TLE epoch observation values (Epoch: 2025-10-18T00:04:09.594Z)
Latitude
-0.00004°
Longitude
9.42244°
Altitude
548.092 km
Speed
7.589 km/s
True Right ascension
02h 28m 48s
True Declination
0° 00' 00"
Sunlit
Object was in full shadow at epoch
Visualization orbit readout
Latitude
Unknown
Longitude
Unknown
Altitude
Unknown
Speed
Unknown
Apparent Right ascension
Unknown
Apparent Declination
Unknown
Sunlit
N/A
Visualization observer readout
Local Sidereal Time
12:52:27
Azimuth
Unknown
Elevation
Unknown
Doppler factor
Unknown
Orbital elements
Apogee altitude
548.29 km
Perigee altitude
546.706 km
Semi-major axis
6,925.635 km
Eccentricity
0.00011
Inclination
53.0561°
RAAN
37.2026°
Arg. of periapsis
89.006°
True anomaly
271.0929°
Mean anomaly
271.106°
Eccentric anomaly
271.09945°
Mean motion
3.76577 °/min
Orbital period
95.6 mins
BSTAR
0.00012172
Loading maneuver chart data...
Computing Atmospheric mass density...
Loading historical data...
Loading historical data...
Loading historical data...
Loading historical data...
Loading historical data...
Loading historical data...
Loading historical data...

Documentation

Showing up to 5 results
|